Total_Precipitation_Accumulation
2.36 2.36 2.26 2.17 2.11 2.10 2.13 2.06 1.91 1.80 1.69 1.64 1.56 1.58 1.59 1.53 1.59 1.71 1.72 1.81 1.93 1.94 1.89 1.85 1.86 2.02 2.15 2.16 2.27 2.40 2.66 2.97 3.08 2.80 2.51 2.36 2.42 2.47 2.52 2.50 2.38 2.24 2.09
2.09 2.13 2.17 1.97 1.86 1.82 1.81 1.78 1.67 1.63 1.61 1.57 1.52 1.51 1.50 1.49 1.51 1.54 1.51 1.57 1.71 1.71 1.69 1.71 1.59 1.69 1.90 2.00 2.13 2.20 2.38 2.61 2.79 2.74 2.54 2.48 2.44 2.45 2.57 2.54 2.32 2.04 1.89
1.63 1.77 1.87 1.70 1.57 1.59 1.56 1.55 1.55 1.48 1.45 1.38 1.36 1.32 1.29 1.36 1.42 1.47 1.48 1.50 1.49 1.50 1.57 1.57 1.56 1.72 1.80 1.95 2.06 2.12 2.29 2.36 2.62 2.61 2.43 2.44 2.51 2.47 2.58 2.45 2.23 2.18 1.75
1.49 1.50 1.54 1.54 1.50 1.46 1.43 1.42 1.40 1.33 1.29 1.21 1.15 1.15 1.19 1.20 1.20 1.24 1.30 1.36 1.42 1.44 1.49 1.51 1.54 1.63 1.75 1.97 2.03 2.17 2.35 2.48 2.62 2.64 2.53 2.52 2.59 2.64 2.66 2.65 2.45 2.23 1.91
1.50 1.50 1.46 1.45 1.40 1.40 1.38 1.35 1.28 1.26 1.19 1.16 1.12 1.11 1.12 1.13 1.05 1.09 1.23 1.30 1.44 1.50 1.49 1.46 1.43 1.46 1.60 1.74 1.80 2.07 2.37 2.54 2.60 2.65 2.59 2.56 2.54 2.69 2.54 2.39 2.36 2.22 1.96
1.53 1.53 1.47 1.43 1.38 1.37 1.39 1.38 1.35 1.37 1.35 1.26 1.23 1.18 1.12 0.98 1.04 1.09 1.15 1.30 1.43 1.47 1.55 1.51 1.34 1.30 1.34 1.40 1.48 1.60 1.94 2.23 2.42 2.55 2.52 2.47 2.40 2.43 2.42 2.32 2.33 2.34 2.16
1.46 1.45 1.51 1.47 1.37 1.32 1.31 1.41 1.41 1.45 1.41 1.35 1.28 1.22 1.16 1.10 1.10 1.03 1.04 1.17 1.38 1.47 1.54 1.58 1.39 1.22 1.33 1.36 1.36 1.34 1.47 1.73 2.08 2.37 2.45 2.28 2.33 2.39 2.49 2.47 2.36 2.34 2.25
1.39 1.32 1.38 1.39 1.38 1.33 1.35 1.42 1.45 1.51 1.51 1.38 1.27 1.24 1.29 1.10 1.04 0.98 1.03 1.13 1.33 1.43 1.43 1.45 1.51 1.47 1.30 1.32 1.41 1.49 1.59 1.70 1.81 1.91 2.16 2.26 2.29 2.29 2.29 2.30 2.37 2.40 2.24
1.31 1.27 1.21 1.18 1.20 1.24 1.26 1.35 1.51 1.55 1.50 1.33 1.22 1.24 1.22 1.03 0.93 0.89 0.91 1.04 1.24 1.31 1.24 1.19 1.23 1.27 1.21 1.25 1.44 1.69 1.86 2.01 1.84 1.84 1.96 2.16 2.22 2.09 1.96 2.10 2.38 2.50 2.30
1.21 1.10 1.12 1.17 1.18 1.18 1.24 1.35 1.37 1.42 1.41 1.29 1.18 1.17 1.11 0.99 0.89 0.80 0.81 0.88 1.04 1.11 1.17 1.14 1.16 1.15 1.14 1.22 1.44 1.81 2.02 2.09 1.89 1.78 1.93 2.11 2.03 1.97 2.00 2.10 2.35 2.40 2.26
1.06 1.01 1.07 1.09 1.12 1.10 1.23 1.27 1.27 1.24 1.32 1.31 1.25 1.15 1.06 0.93 0.79 0.74 0.73 0.74 0.85 0.99 1.06 1.12 1.15 1.13 1.08 1.18 1.41 1.69 1.91 1.97 1.91 1.89 1.98 2.07 2.09 2.11 2.02 2.03 2.14 2.15 2.17
0.97 0.94 0.95 0.96 0.90 0.89 1.16 1.27 1.26 1.32 1.27 1.20 1.23 1.17 1.01 0.88 0.71 0.59 0.58 0.62 0.73 0.97 1.08 1.08 1.11 1.14 1.11 1.23 1.34 1.63 1.92 2.07 1.96 1.85 1.82 1.85 1.86 1.87 1.83 1.75 1.77 1.79 1.84
0.91 0.94 0.90 0.86 0.92 0.89 0.95 1.03 1.09 1.19 1.13 1.03 1.03 1.02 0.89 0.77 0.64 0.52 0.47 0.50 0.62 0.76 0.94 1.07 1.06 1.02 1.17 1.44 1.60 1.77 1.99 2.16 2.05 1.83 1.73 1.64 1.61 1.63 1.60 1.64 1.64 1.64 1.58
0.93 0.98 0.96 0.91 0.92 0.89 0.86 0.84 0.79 0.83 0.88 0.94 0.95 0.92 0.87 0.79 0.61 0.47 0.46 0.49 0.56 0.64 0.78 0.99 1.14 1.20 1.36 1.66 1.89 2.01 2.07 2.05 1.90 1.74 1.63 1.57 1.52 1.52 1.56 1.54 1.61 1.62 1.65
1.00 0.95 0.94 0.89 0.84 0.84 0.78 0.75 0.69 0.67 0.72 0.77 0.80 0.83 0.81 0.71 0.55 0.51 0.46 0.46 0.53 0.62 0.76 0.97 1.15 1.26 1.47 1.71 1.85 1.87 1.87 1.83 1.78 1.67 1.57 1.52 1.51 1.50 1.51 1.51 1.55 1.52 1.57
0.93 0.90 0.83 0.81 0.76 0.70 0.67 0.63 0.56 0.50 0.53 0.55 0.56 0.56 0.55 0.56 0.56 0.52 0.47 0.52 0.60 0.70 0.82 1.07 1.25 1.36 1.54 1.66 1.77 1.74 1.67 1.65 1.63 1.60 1.58 1.49 1.45 1.47 1.53 1.51 1.46 1.45 1.49
0.80 0.83 0.76 0.65 0.65 0.64 0.64 0.69 0.65 0.51 0.44 0.45 0.46 0.45 0.45 0.46 0.46 0.48 0.48 0.55 0.61 0.72 0.87 1.12 1.32 1.45 1.56 1.60 1.62 1.60 1.56 1.51 1.44 1.45 1.45 1.42 1.40 1.41 1.45 1.45 1.40 1.38 1.38
0.71 0.72 0.70 0.62 0.61 0.62 0.58 0.55 0.59 0.64 0.63 0.56 0.48 0.43 0.42 0.43 0.47 0.49 0.49 0.56 0.67 0.75 0.93 1.13 1.33 1.41 1.45 1.50 1.49 1.48 1.45 1.41 1.36 1.38 1.44 1.40 1.32 1.29 1.26 1.26 1.28 1.26 1.24
0.73 0.70 0.66 0.65 0.64 0.63 0.60 0.50 0.48 0.52 0.60 0.63 0.58 0.49 0.47 0.48 0.54 0.60 0.64 0.67 0.76 0.82 0.92 1.03 1.14 1.24 1.33 1.39 1.38 1.35 1.35 1.32 1.26 1.26 1.29 1.29 1.24 1.17 1.11 1.07 1.07 1.02 1.03
0.80 0.81 0.74 0.69 0.66 0.65 0.65 0.55 0.50 0.49 0.54 0.58 0.60 0.55 0.51 0.61 0.71 0.74 0.73 0.71 0.75 0.84 0.90 0.96 0.99 1.02 1.10 1.18 1.18 1.13 1.15 1.14 1.11 1.13 1.13 1.14 1.17 1.13 1.04 0.97 0.95 0.95 0.99
0.78 0.78 0.76 0.72 0.73 0.73 0.71 0.67 0.57 0.54 0.56 0.60 0.57 0.54 0.61 0.65 0.78 0.80 0.78 0.76 0.79 0.81 0.80 0.83 0.85 0.87 0.87 0.89 0.95 0.96 1.01 1.08 1.11 1.10 1.09 1.07 1.04 1.00 0.93 0.90 0.90 0.88 0.85
0.83 0.83 0.78 0.72 0.74 0.76 0.76 0.75 0.68 0.61 0.60 0.63 0.60 0.56 0.65 0.68 0.74 0.77 0.77 0.80 0.82 0.85 0.83 0.80 0.76 0.76 0.78 0.81 0.86 0.91 0.96 0.99 1.02 1.05 1.03 0.99 0.98 0.93 0.88 0.86 0.87 0.87 0.84
0.84 0.81 0.81 0.80 0.76 0.72 0.69 0.67 0.68 0.66 0.66 0.65 0.60 0.59 0.62 0.69 0.76 0.82 0.83 0.83 0.82 0.81 0.77 0.75 0.77 0.77 0.75 0.73 0.74 0.80 0.83 0.84 0.91 0.98 1.01 0.92 0.87 0.84 0.80 0.79 0.81 0.85 0.84
0.83 0.77 0.71 0.75 0.76 0.71 0.69 0.68 0.67 0.67 0.66 0.68 0.66 0.62 0.65 0.68 0.72 0.79 0.85 0.88 0.89 0.86 0.80 0.78 0.78 0.76 0.72 0.70 0.72 0.72 0.70 0.70 0.72 0.77 0.79 0.77 0.72 0.71 0.70 0.70 0.70 0.72 0.74
0.78 0.85 0.80 0.76 0.72 0.67 0.68 0.70 0.68 0.69 0.73 0.71 0.67 0.64 0.64 0.65 0.71 0.75 0.79 0.86 0.90 0.90 0.90 0.89 0.88 0.82 0.73 0.65 0.65 0.66 0.76 0.77 0.71 0.67 0.69 0.68 0.62 0.62 0.65 0.65 0.65 0.66 0.68
0.62 0.72 0.80 0.81 0.76 0.70 0.70 0.69 0.65 0.66 0.71 0.74 0.68 0.62 0.57 0.57 0.61 0.62 0.64 0.71 0.79 0.86 0.90 0.94 0.94 0.85 0.75 0.67 0.66 0.69 0.68 0.59 0.55 0.59 0.67 0.66 0.59 0.58 0.59 0.62 0.60 0.61 0.66